TimeMST,TemperatureF,Dew PointF,Humidity,Sea Level PressureIn,VisibilityMPH,Wind Direction,Wind SpeedMPH,Gust SpeedMPH,PrecipitationIn,Events,Conditions,WindDirDegrees,DateUTC
12:53 AM,21.9,17.1,82,30.11,10.0,Calm,Calm,-,N/A,,Overcast,0,2012-12-28 07:53:00
1:53 AM,21.9,17.1,82,30.10,10.0,NE,4.6,-,N/A,,Overcast,50,2012-12-28 08:53:00
2:53 AM,21.0,16.0,81,30.15,10.0,NNE,3.5,-,N/A,,Overcast,30,2012-12-28 09:53:00
4:53 AM,17.1,14.0,88,30.16,10.0,ENE,4.6,-,N/A,,Mostly Cloudy,60,2012-12-28 11:53:00
5:53 AM,15.1,12.9,91,30.18,10.0,North,3.5,-,N/A,,Mostly Cloudy,360,2012-12-28 12:53:00
6:53 AM,12.9,10.0,88,30.22,10.0,ENE,5.8,-,0.01,,Scattered Clouds,60,2012-12-28 13:53:00
7:53 AM,14.0,10.0,84,30.23,10.0,Calm,Calm,-,N/A,,Clear,0,2012-12-28 14:53:00
8:53 AM,18.0,14.0,84,30.23,10.0,Calm,Calm,-,N/A,,Clear,0,2012-12-28 15:53:00
9:53 AM,18.0,12.9,81,30.26,10.0,Calm,Calm,-,N/A,,Clear,0,2012-12-28 16:53:00
11:53 AM,27.0,14.0,58,30.20,10.0,NNE,6.9,-,N/A,,Clear,20,2012-12-28 18:53:00
12:53 PM,28.9,12.9,51,30.18,10.0,NE,6.9,-,N/A,,Clear,40,2012-12-28 19:53:00
1:53 PM,30.0,12.9,49,30.16,10.0,NE,6.9,-,N/A,,Clear,50,2012-12-28 20:53:00
2:53 PM,30.0,12.9,49,30.17,10.0,Calm,Calm,-,N/A,,Clear,0,2012-12-28 21:53:00
3:53 PM,28.9,14.0,54,30.18,10.0,NNW,3.5,-,N/A,,Clear,330,2012-12-28 22:53:00
4:53 PM,27.0,12.9,56,30.20,10.0,North,3.5,-,N/A,,Clear,360,2012-12-28 23:53:00
5:53 PM,18.0,10.9,74,30.26,10.0,Calm,Calm,-,N/A,,Clear,0,2012-12-29 00:53:00
6:53 PM,16.0,10.0,77,30.29,10.0,SSE,3.5,-,N/A,,Clear,160,2012-12-29 01:53:00
7:53 PM,16.0,10.0,77,30.29,10.0,SSW,4.6,-,N/A,,Clear,200,2012-12-29 02:53:00
8:53 PM,12.0,7.0,80,30.29,10.0,NE,5.8,-,N/A,,Clear,50,2012-12-29 03:53:00
9:53 PM,10.0,5.0,80,30.29,10.0,Calm,Calm,-,N/A,,Clear,0,2012-12-29 04:53:00
10:53 PM,9.0,5.0,84,30.26,10.0,Calm,Calm,-,N/A,,Clear,0,2012-12-29 05:53:00
11:53 PM,9.0,5.0,84,30.26,10.0,South,3.5,-,N/A,,Clear,190,2012-12-29 06:53:00